MEASAT 3D

Last updated on Thu Nov 21 2024 00:02:44 GMT+0000 (Coordinated Universal Time)

1 52904U 22067B 24325.54564566 -.00000241 00000+0 00000+0 0 9990 2 52904 0.0293 355.2905 0003265 283.1979 69.5228 1.00272360 8898
UTC large
Height (km)
Speed (km/s)
/
Latitude / Longitude
Inclination (degrees)
Orbital Period (minutes)
Azimuth
Elevation
Range (km)
Doppler Factor

Next 0 passes for location: London (51.5072 / 0.1276)

Sorry there are no passes over London.